Weather in Hamilton

Canada     43°15′10″N   79°51′30″W
temp.,
°C
wind,
m/s
gust,
m/s
humid.,
%
clouds,
%
prec.,
mm/h
press.,
hPa
HPBL,
m
1 march, mon
mon101:00+7w91788100 0.1 1003553
04:00+3w61382100 0.0 1006682
07:000wnw6117398 0.0 1010971
10:000wnw587895 0.1 1013894
13:00+1wnw9126298 0.4 10131665
16:00−2wnw11174999 0.1 10151972
19:00−6nw10175590 0.1 10221918
22:00−7nw9145391 0.0 10241625
2 march, tue
tue201:00−8nw8145789 0.0 10261504
04:00−7wnw696998 0.0 10271228
07:00−7wnw586399 0.1 10271170
10:00−5w575592 0.0 10271097
13:00−2sw564656 0.0 10251053
16:00−1sw79504 0.0 1020936
19:00−1sw9165231 0.0 1017766
22:00+1wsw11204943 0.0 1014927
3 march, wed
wed301:00+1wsw8165539 0.0 1013986
04:00+1wsw7146374 0.0 1012791
07:00+1wsw6127571 0.0 1013570
10:00+3wsw487416 0.0 1013584
13:00+4wnw467449 0.0 1013512
16:00+4w3672100 0.0 1013426
19:00+3wnw368697 0.1 1015190
22:00+1wnw598587 0.1 1016473
4 march, thu
thu401:00+1n588460 0.1 1017543
04:00−1n577152 0.0 1018770
07:00−3n576675 0.0 1021914
10:00−3n575694 0.0 1022991
13:00−2nnw574348 0.0 10231244
16:00−1nnw57427 0.0 10221255
19:00−4nnw67484 0.0 1024952
22:00−5nnw58510 0.0 1025892
5 march, fri
fri501:00−5nnw57540 0.0 1024978
04:00−5nnw47570 0.0 1024930
07:00−5nw47560 0.0 1025892
10:00−4nw58460 0.0 1025963
13:00−1wnw68500 0.0 10251180
16:000wnw695512 0.0 10241122
19:00−1wnw510667 0.0 1025825
22:00−1wnw496911 0.0 1025803